CW3583 Weather Reports


time (UTC)temp
C
wind
direction
speed
KPH
gust
KPH
rain 1hr
cm
rain 24hr
cm
rain mn
cm
humidity
%
barometer
mb
20260508042803 15 103 1.6 3.2 0.00 0.43 0.00 74 1008.2
20260508042306 15 103 1.6 8.0 0.00 0.43 0.00 73 1008.2
20260508041806 15 133 4.8 8.0 0.00 0.43 0.00 73 1008.4
20260508040307 15 204 3.2 8.0 0.00 0.43 0.00 74 1008.5
20260508035803 15 128 0.0 8.0 0.00 0.43 0.00 74 1008.5
20260508035306 15 128 3.2 4.8 0.00 0.43 0.00 73 1008.5
20260508034806 15 128 3.2 9.7 0.00 0.43 0.00 74 1008.5
20260508032804 15 170 4.8 11.3 0.00 0.43 0.00 72 1008.6
20260508031807 15 177 4.8 8.0 0.00 0.43 0.00 74 1008.7
20260508031303 15 171 8.0 11.3 0.00 0.43 0.00 74 1008.7
20260508030804 16 155 4.8 9.7 0.00 0.43 0.00 73 1008.8
20260508030306 16 156 4.8 11.3 0.00 0.43 0.00 72 1008.8
20260508025803 16 145 3.2 9.7 0.00 0.43 0.00 71 1008.8
20260508025306 16 166 3.2 8.0 0.00 0.43 0.00 71 1008.8
20260508024304 16 167 4.8 12.9 0.00 0.43 0.00 72 1008.9
20260508023804 15 185 4.8 12.9 0.00 0.43 0.00 73 1008.9
20260508023306 15 186 4.8 12.9 0.00 0.43 0.00 74 1008.9
20260508021806 15 175 4.8 11.3 0.00 0.43 0.00 76 1009.3
20260508021304 15 152 4.8 8.0 0.00 0.43 0.00 77 1009.2
20260508020306 15 160 8.0 12.9 0.00 0.43 0.00 78 1009.2
20260508010803 14 182 3.2 8.0 0.00 0.43 0.00 82 1009.5
20260508010306 14 170 4.8 11.3 0.00 0.43 0.00 83 1009.6
20260508005306 14 183 3.2 4.8 0.00 0.43 0.00 84 1009.7
20260508004806 14 176 4.8 8.0 0.00 0.43 0.00 85 1009.7
20260508000804 13 175 3.2 4.8 0.00 0.43 0.00 90 1010.0
20260508000306 13 155 3.2 4.8 0.00 0.43 0.00 90 1009.9
20260507235306 13 126 1.6 4.8 0.00 0.43 0.00 90 1010.1
20260507234806 13 126 0.0 1.6 0.00 0.43 0.00 90 1010.1
20260507234304 14 126 0.0 3.2 0.00 0.43 0.00 90 1010.1
20260507233804 14 126 0.0 3.2 0.00 0.43 0.00 90 1010.2
20260507230309 15 140 6.4 11.3 0.00 0.43 0.00 90 1010.4
20260507222306 15 186 1.6 4.8 0.00 0.43 0.00 89 1010.8
20260507220306 15 219 4.8 8.0 0.00 0.43 0.00 88 1010.9
20260507215803 15 113 0.0 4.8 0.00 0.43 0.43 88 1010.9
20260507214304 15 113 0.0 0.0 0.00 0.43 0.43 88 1011.0
20260507212803 16 113 1.6 3.2 0.00 0.43 0.43 88 1010.7
20260507212306 16 113 1.6 3.2 0.00 0.43 0.43 88 1010.8
20260507210307 16 98 4.8 11.3 0.00 0.43 0.43 88 1010.7
20260507204806 16 38 4.8 9.7 0.00 0.43 0.43 87 1010.6
20260507204304 16 43 4.8 9.7 0.00 0.43 0.43 87 1010.5
20260507202804 16 58 8.0 11.3 0.00 0.43 0.43 87 1010.4
20260507202306 16 70 9.7 14.5 0.00 0.43 0.43 86 1010.2
20260507201807 16 34 6.4 12.9 0.00 0.43 0.43 86 1010.0
20260507195803 16 83 8.0 14.5 0.00 0.43 0.43 85 1009.9
20260507194806 17 87 8.0 16.1 0.00 0.43 0.43 84 1009.9
20260507194303 17 54 8.0 12.9 0.00 0.43 0.43 83 1009.8
20260507191807 17 21 3.2 4.8 0.00 0.43 0.43 83 1009.7
20260507191303 17 132 0.0 0.0 0.00 0.43 0.43 83 1009.7
20260507190306 17 132 0.0 4.8 0.00 0.43 0.43 83 1009.7
20260507185306 17 132 0.0 0.0 0.00 0.43 0.43 83 1009.5
20260507183307 17 213 3.2 4.8 0.03 0.43 0.43 84 1009.3
20260507182306 17 157 8.0 14.5 0.03 0.43 0.43 83 1009.3
20260507181806 17 147 4.8 8.0 0.03 0.43 0.43 83 1009.3
20260507180804 17 161 4.8 8.0 0.03 0.43 0.43 83 1009.0
20260507175306 17 206 8.0 19.3 0.03 0.43 0.43 83 1009.3
20260507174805 17 175 3.2 12.9 0.03 0.43 0.43 84 1009.4
20260507174304 17 136 3.2 9.7 0.03 0.43 0.43 84 1009.6
20260507172803 17 349 3.2 8.0 0.00 0.41 0.41 83 1009.9
20260507172307 17 349 3.2 4.8 0.00 0.41 0.41 83 1009.9
20260507165804 17 79 1.6 4.8 0.00 0.41 0.41 84 1009.9
20260507164304 16 79 4.8 9.7 0.05 0.41 0.41 84 1009.5
20260507163306 16 86 8.0 16.1 0.15 0.41 0.41 85 1009.4
20260507162307 16 77 9.7 14.5 0.33 0.41 0.41 86 1009.3
20260507161806 16 64 9.7 14.5 0.36 0.41 0.41 87 1009.5
20260507160305 15 48 9.7 16.1 0.41 0.41 0.41 87 1009.5
20260507155306 15 95 9.7 20.9 0.41 0.41 0.41 86 1009.3
20260507154806 15 83 9.7 22.5 0.41 0.41 0.41 85 1009.1
20260507154304 16 89 8.0 19.3 0.36 0.36 0.36 85 1009.4
20260507153803 16 132 9.7 19.3 0.30 0.30 0.30 84 1009.7
20260507153307 16 128 8.0 19.3 0.23 0.23 0.23 83 1009.9
20260507151806 16 131 4.8 19.3 0.05 0.05 0.05 80 1010.2
20260507145804 16 79 14.5 24.1 0.00 0.00 0.00 78 1009.8
20260507144304 17 83 19.3 32.2 0.00 0.00 0.00 78 1009.6
20260507143803 17 88 19.3 32.2 0.00 0.00 0.00 79 1009.7
20260507143305 16 85 19.3 32.2 0.00 0.00 0.00 80 1009.6
20260507142306 16 62 22.5 33.8 0.00 0.00 0.00 81 1009.4
20260507140804 17 65 22.5 33.8 0.00 0.00 0.00 80 1009.6
20260507140305 17 43 14.5 25.7 0.00 0.00 0.00 81 1009.6
20260507135804 16 56 16.1 27.4 0.00 0.00 0.00 80 1009.7
20260507135306 16 52 20.9 29.0 0.00 0.00 0.00 79 1009.8
20260507134303 16 39 20.9 32.2 0.00 0.00 0.00 80 1009.7
20260507132307 17 53 16.1 32.2 0.00 0.00 0.00 79 1009.9
20260507130804 16 62 22.5 33.8 0.00 0.00 0.00 80 1010.0
20260507130307 16 67 29.0 40.2 0.00 0.00 0.00 79 1010.0
20260507125306 16 67 32.2 41.8 0.00 0.00 0.00 79 1010.0
20260507124304 16 60 27.4 38.6 0.00 0.00 0.00 78 1010.2
20260507123307 16 78 25.7 37.0 0.00 0.00 0.00 77 1010.2
20260507120804 16 61 20.9 32.2 0.00 0.00 0.00 78 1010.5
20260507115804 16 68 22.5 35.4 0.00 0.00 0.00 78 1010.8
20260507113804 16 67 22.5 32.2 0.00 0.00 0.00 78 1010.8
20260507112804 16 63 24.1 35.4 0.00 0.00 0.00 77 1011.0
20260507112306 16 52 20.9 33.8 0.00 0.00 0.00 77 1010.9
20260507111303 16 53 17.7 27.4 0.00 0.00 0.00 77 1010.9
20260507110804 16 55 20.9 32.2 0.00 0.00 0.00 76 1010.9
20260507110305 16 85 22.5 32.2 0.00 0.00 0.00 75 1011.0
20260507103306 16 55 16.1 27.4 0.00 0.00 0.00 74 1011.3
20260507102804 16 62 17.7 25.7 0.00 0.00 0.00 71 1011.5
20260507101806 16 72 14.5 29.0 0.00 0.00 0.00 68 1011.6
20260507100803 16 80 22.5 32.2 0.00 0.00 0.00 69 1011.8
20260507094805 16 80 16.1 27.4 0.00 0.00 0.00 73 1011.8
20260507094304 15 75 16.1 27.4 0.00 0.00 0.00 74 1011.8
20260507093803 15 87 16.1 22.5 0.00 0.00 0.00 75 1011.8
20260507091806 14 80 14.5 20.9 0.00 0.03 0.00 76 1012.0
20260507090804 14 62 11.3 19.3 0.00 0.03 0.00 77 1012.0
20260507085306 14 102 3.2 11.3 0.00 0.03 0.00 77 1012.2
20260507084304 14 136 8.0 14.5 0.00 0.03 0.00 77 1012.3
20260507082306 14 93 9.7 16.1 0.00 0.05 0.00 77 1012.2
20260507081807 14 114 11.3 19.3 0.00 0.08 0.00 78 1012.4
20260507081304 14 129 8.0 16.1 0.00 0.10 0.00 78 1012.3
20260507080306 14 81 11.3 24.1 0.00 0.15 0.00 79 1012.3
20260507075306 13 111 9.7 19.3 0.00 0.15 0.00 80 1012.3
20260507074805 13 131 9.7 16.1 0.00 0.15 0.00 80 1012.3
20260507074303 13 94 9.7 20.9 0.00 0.15 0.00 80 1012.3
20260507072804 13 84 8.0 16.1 0.00 0.15 0.00 81 1012.3
20260507072306 13 99 8.0 16.1 0.00 0.15 0.00 83 1012.4
20260507071304 13 102 9.7 19.3 0.00 0.15 0.00 84 1012.4
20260507070804 12 103 8.0 16.1 0.00 0.15 0.00 84 1012.3
20260507064304 12 143 6.4 12.9 0.00 0.15 0.00 88 1012.4
20260507063804 12 109 4.8 12.9 0.00 0.15 0.00 88 1012.4
20260507063305 12 114 4.8 14.5 0.00 0.15 0.00 89 1012.4
20260507062805 11 121 9.7 12.9 0.00 0.15 0.00 89 1012.5
20260507062306 11 141 4.8 11.3 0.00 0.15 0.00 90 1012.6
20260507061806 11 145 4.8 11.3 0.00 0.15 0.00 90 1012.7
20260507061304 11 166 3.2 11.3 0.00 0.15 0.00 90 1012.7
20260507060306 11 154 3.2 4.8 0.00 0.15 0.00 90 1012.6
20260507055306 11 130 8.0 12.9 0.00 0.15 0.00 91 1012.5
20260507054806 11 107 8.0 11.3 0.00 0.15 0.00 91 1012.5
20260507053803 11 126 3.2 4.8 0.00 0.15 0.00 91 1012.5
20260507052306 10 160 4.8 8.0 0.00 0.15 0.00 91 1012.8
20260507051806 10 141 4.8 8.0 0.00 0.15 0.00 91 1012.8
20260507051304 10 162 4.8 4.8 0.00 0.15 0.00 91 1012.8
20260507050804 10 163 4.8 8.0 0.00 0.15 0.00 91 1012.8
20260507050307 10 155 4.8 8.0 0.00 0.15 0.00 91 1012.8
20260507045803 10 159 4.8 8.0 0.00 0.15 0.00 91 1012.8
20260507045306 10 165 4.8 8.0 0.00 0.15 0.00 91 1012.7